Location: *
(51.0333°S, 178.4667°E)
Time: 21:07:19
(UTC+00:00)

Envisat - Pass Details

Date: 27 January 2020
Orbit: 764 x 766 km, 98.1° (Epoch: 23 February)

Event Time Altitude Azimuth Distance (km) Brightness Sun altitude
Rises 09:04:16 0° 178° (S) 3,280 7.0 -8.4°
Reaches altitude 10° 09:07:57 10° 205° (SSW) 2,345 6.8 -8.9°
Maximum altitude 09:10:06 13° 230° (SW) 2,155 6.9 -9.1°
Drops below altitude 10° 09:12:15 10° 255° (WSW) 2,335 6.5 -9.3°
Sets 09:15:54 0° 282° (WNW) 3,253 6.7 -9.7°
